Weather in Shestakovo

Russia / Kirov Oblast     58°55′56″N   50°10′23″E
temp.,
°C
wind,
m/s
gust,
m/s
humid.,
%
clouds,
%
prec.,
mm/h
press.,
hPa
HPBL,
m
17 june, thu
thu1700:00+11nw28970 0.0 1011177
03:00+9nw3119443 0.0 1013246
06:00+12nw398111 0.0 1014376
09:00+17nw59454 0.0 10141895
12:00+17nw474987 0.0 10151533
15:00+17nw5757100 0.2 10161957
18:00+14nnw596810 0.3 10181187
21:00+11nnw311774 0.5 1020481
18 june, fri
fri1800:00+8nnw411860 0.0 1022519
03:00+7nnw311905 0.0 1024413
06:00+11n36705 0.0 1025462
09:00+16nnw35466 0.0 10251427
12:00+19wnw453649 0.0 10241862
15:00+21w463527 0.0 10231996
18:00+20wsw375187 0.0 1022621
21:00+15sw3973100 0.0 1021191
19 june, sat
sat1900:00+15wsw4137576 0.0 1021360
03:00+14wsw41281100 0.0 1020333
06:00+16wsw4117891 0.0 1020411
09:00+24w585593 0.0 1018969
12:00+27w610405 0.0 10172170
15:00+28w610405 0.0 10152301
18:00+26wnw49511 0.0 10151122
21:00+20w313745 0.0 1016357
20 june, sun
sun2000:00+18nw38765 0.0 1018177
03:00+16nw29950 0.0 1019209
06:00+19n36701 0.0 1021536
09:00+23nnw35510 0.0 10211009
12:00+26nw354511 0.0 10201689
15:00+28nnw37389 0.0 10192420
18:00+23nnw2370100 0.0 101991
21:00+19se227454 0.0 101927
21 june, mon
mon2100:00+20s2677100 0.0 1019147
03:00+19wsw378283 0.0 1018161
06:00+22w366894 0.0 1018221
09:00+27w36510 0.0 1017937
12:00+30w453867 0.0 10162589
15:00+24nw41063100 0.3 1017411
18:00+23w25651 0.1 1016114
21:00+20w36805 0.1 1016114